| time (UTC) | temp C | wind direction | speed KPH | gust KPH | rain 1hr cm | rain 24hr cm | rain mn cm | humidity % | barometer mb |
| 20260507061705 | 7 | 288 | 0.0 | 3.2 | 0.00 | 0.58 | 0.00 | 95 | 1013.3 |
| 20260507060205 | 7 | 229 | 0.0 | 6.4 | 0.00 | 0.61 | 0.00 | 95 | 1013.1 |
| 20260507054705 | 7 | 257 | 1.6 | 4.8 | 0.00 | 0.66 | 0.00 | 95 | 1013.0 |
| 20260507053205 | 7 | 326 | 0.0 | 4.8 | 0.00 | 0.69 | 0.00 | 95 | 1012.8 |
| 20260507051705 | 7 | 332 | 0.0 | 4.8 | 0.00 | 0.74 | 0.00 | 94 | 1012.7 |
| 20260507050205 | 7 | 252 | 1.6 | 6.4 | 0.00 | 0.81 | 0.00 | 94 | 1012.4 |
| 20260507044704 | 7 | 258 | 1.6 | 4.8 | 0.00 | 0.86 | 0.00 | 94 | 1012.3 |
| 20260507043204 | 7 | 327 | 0.0 | 4.8 | 0.00 | 0.91 | 0.00 | 94 | 1012.1 |
| 20260507041704 | 7 | 300 | 0.0 | 3.2 | 0.00 | 0.99 | 0.00 | 94 | 1012.0 |
| 20260507040205 | 7 | 336 | 0.0 | 4.8 | 0.00 | 1.04 | 0.00 | 94 | 1011.9 |
| 20260507034704 | 7 | 298 | 0.0 | 4.8 | 0.00 | 1.09 | 0.00 | 94 | 1011.8 |
| 20260507033205 | 7 | 262 | 0.0 | 4.8 | 0.00 | 1.14 | 0.00 | 94 | 1011.8 |
| 20260507031705 | 7 | 327 | 0.0 | 4.8 | 0.00 | 1.17 | 0.00 | 94 | 1011.6 |
| 20260507030205 | 7 | 288 | 0.0 | 3.2 | 0.00 | 1.22 | 0.00 | 94 | 1011.5 |
| 20260507024705 | 7 | 182 | 0.0 | 4.8 | 0.00 | 1.30 | 0.00 | 94 | 1011.4 |
| 20260507023205 | 8 | 221 | 0.0 | 3.2 | 0.00 | 1.35 | 0.00 | 94 | 1011.4 |
| 20260507021705 | 8 | 192 | 0.0 | 3.2 | 0.00 | 1.40 | 0.00 | 94 | 1011.3 |
| 20260507020204 | 8 | 234 | 0.0 | 4.8 | 0.00 | 1.42 | 0.00 | 93 | 1011.2 |
| 20260507014705 | 8 | 271 | 0.0 | 4.8 | 0.00 | 1.47 | 0.00 | 93 | 1011.1 |
| 20260507013205 | 8 | 286 | 0.0 | 1.6 | 0.00 | 1.52 | 0.00 | 93 | 1011.1 |
| 20260507011705 | 8 | 291 | 0.0 | 1.6 | 0.00 | 1.57 | 0.00 | 93 | 1011.0 |
| 20260507010205 | 8 | 296 | 0.0 | 3.2 | 0.00 | 1.65 | 0.00 | 93 | 1010.9 |
| 20260507004705 | 8 | 295 | 0.0 | 4.8 | 0.00 | 1.75 | 0.00 | 92 | 1010.9 |
| 20260507003205 | 8 | 301 | 0.0 | 3.2 | 0.00 | 1.85 | 0.00 | 92 | 1010.7 |
| 20260507001705 | 8 | 291 | 0.0 | 3.2 | 0.00 | 1.93 | 0.00 | 92 | 1010.6 |
| 20260507000205 | 8 | 229 | 0.0 | 1.6 | 0.00 | 1.98 | 0.00 | 92 | 1010.6 |
| 20260506234704 | 8 | 217 | 0.0 | 1.6 | 0.00 | 2.06 | 0.00 | 92 | 1010.7 |
| 20260506233205 | 8 | 217 | 0.0 | 1.6 | 0.00 | 2.11 | 0.00 | 92 | 1010.7 |
| 20260506231705 | 8 | 238 | 0.0 | 3.2 | 0.00 | 2.24 | 0.00 | 93 | 1010.6 |
| 20260506230205 | 8 | 238 | 0.0 | 6.4 | 0.00 | 2.29 | 0.00 | 93 | 1010.6 |
| 20260506224705 | 8 | 317 | 0.0 | 6.4 | 0.00 | 2.34 | 0.00 | 93 | 1010.5 |
| 20260506223205 | 8 | 227 | 0.0 | 3.2 | 0.00 | 2.36 | 0.00 | 93 | 1010.4 |
| 20260506221705 | 8 | 292 | 0.0 | 4.8 | 0.00 | 2.41 | 0.00 | 93 | 1010.4 |
| 20260506220205 | 8 | 335 | 0.0 | 4.8 | 0.00 | 2.41 | 2.41 | 93 | 1010.3 |
| 20260506214705 | 8 | 331 | 0.0 | 3.2 | 0.00 | 2.41 | 2.41 | 94 | 1010.3 |
| 20260506213205 | 8 | 245 | 0.0 | 3.2 | 0.00 | 2.41 | 2.41 | 94 | 1010.3 |
| 20260506211705 | 8 | 241 | 0.0 | 0.0 | 0.00 | 2.41 | 2.41 | 94 | 1010.1 |
| 20260506210205 | 8 | 242 | 0.0 | 3.2 | 0.00 | 2.41 | 2.41 | 94 | 1010.0 |
| 20260506204705 | 8 | 242 | 0.0 | 3.2 | 0.00 | 2.41 | 2.41 | 93 | 1009.9 |
| 20260506203205 | 8 | 274 | 0.0 | 6.4 | 0.00 | 2.41 | 2.41 | 93 | 1009.9 |
| 20260506201704 | 8 | 225 | 1.6 | 8.0 | 0.00 | 2.41 | 2.41 | 93 | 1009.9 |
| 20260506200205 | 8 | 326 | 0.0 | 8.0 | 0.00 | 2.41 | 2.41 | 93 | 1009.8 |
| 20260506194705 | 8 | 309 | 0.0 | 3.2 | 0.00 | 2.41 | 2.41 | 93 | 1009.7 |
| 20260506193205 | 8 | 322 | 0.0 | 4.8 | 0.00 | 2.41 | 2.41 | 93 | 1009.6 |
| 20260506191704 | 8 | 294 | 0.0 | 6.4 | 0.00 | 2.41 | 2.41 | 93 | 1009.5 |
| 20260506190205 | 8 | 293 | 0.0 | 4.8 | 0.00 | 2.41 | 2.41 | 93 | 1009.3 |
| 20260506184705 | 8 | 301 | 0.0 | 4.8 | 0.00 | 2.41 | 2.41 | 93 | 1009.2 |
| 20260506183205 | 8 | 305 | 0.0 | 1.6 | 0.00 | 2.41 | 2.41 | 93 | 1009.0 |
| 20260506181705 | 8 | 305 | 0.0 | 4.8 | 0.00 | 2.41 | 2.41 | 93 | 1008.9 |
| 20260506180205 | 8 | 323 | 0.0 | 4.8 | 0.00 | 2.41 | 2.41 | 92 | 1008.8 |
| 20260506174706 | 8 | 260 | 0.0 | 6.4 | 0.00 | 2.41 | 2.41 | 93 | 1008.7 |
| 20260506173205 | 8 | 5 | 1.6 | 8.0 | 0.00 | 2.41 | 2.41 | 93 | 1008.7 |
| 20260506171705 | 8 | 315 | 0.0 | 6.4 | 0.00 | 2.41 | 2.41 | 93 | 1008.6 |
| 20260506170205 | 8 | 315 | 1.6 | 9.7 | 0.00 | 2.41 | 2.41 | 93 | 1008.4 |
| 20260506164704 | 8 | 327 | 1.6 | 9.7 | 0.00 | 2.41 | 2.41 | 94 | 1008.3 |
| 20260506163205 | 8 | 316 | 1.6 | 6.4 | 0.00 | 2.41 | 2.41 | 94 | 1008.2 |
| 20260506161705 | 8 | 305 | 1.6 | 9.7 | 0.00 | 2.41 | 2.41 | 94 | 1008.3 |
| 20260506160205 | 9 | 308 | 1.6 | 9.7 | 0.00 | 2.41 | 2.41 | 95 | 1008.0 |
| 20260506154705 | 9 | 274 | 0.0 | 4.8 | 0.03 | 2.41 | 2.41 | 95 | 1008.0 |
| 20260506153205 | 9 | 88 | 0.0 | 9.7 | 0.03 | 2.41 | 2.41 | 95 | 1007.9 |
| 20260506151705 | 9 | 311 | 0.0 | 8.0 | 0.03 | 2.41 | 2.41 | 95 | 1007.9 |
| 20260506150205 | 9 | 87 | 1.6 | 6.4 | 0.03 | 2.41 | 2.41 | 95 | 1007.8 |
| 20260506144705 | 9 | 332 | 1.6 | 12.9 | 0.00 | 2.39 | 2.39 | 95 | 1007.8 |
| 20260506143204 | 9 | 326 | 1.6 | 9.7 | 0.03 | 2.39 | 2.39 | 95 | 1007.7 |
| 20260506140205 | 9 | 289 | 1.6 | 6.4 | 0.05 | 2.39 | 2.39 | 95 | 1007.6 |
| 20260506134705 | 9 | 302 | 1.6 | 11.3 | 0.05 | 2.39 | 2.39 | 95 | 1007.6 |
| 20260506133205 | 9 | 260 | 0.0 | 4.8 | 0.05 | 2.36 | 2.36 | 95 | 1007.6 |
| 20260506131704 | 9 | 302 | 0.0 | 4.8 | 0.03 | 2.34 | 2.34 | 95 | 1007.5 |
| 20260506130204 | 9 | 296 | 1.6 | 6.4 | 0.05 | 2.34 | 2.34 | 95 | 1007.5 |
| 20260506124705 | 9 | 11 | 0.0 | 4.8 | 0.05 | 2.34 | 2.34 | 95 | 1007.4 |
| 20260506123205 | 9 | 319 | 1.6 | 6.4 | 0.05 | 2.31 | 2.31 | 95 | 1007.4 |
| 20260506121704 | 8 | 297 | 1.6 | 6.4 | 0.08 | 2.31 | 2.31 | 95 | 1007.3 |
| 20260506120205 | 8 | 242 | 1.6 | 6.4 | 0.08 | 2.29 | 2.29 | 95 | 1007.1 |
| 20260506114704 | 8 | 346 | 1.6 | 6.4 | 0.10 | 2.29 | 2.29 | 95 | 1007.0 |
| 20260506113205 | 8 | 281 | 1.6 | 4.8 | 0.08 | 2.26 | 2.26 | 95 | 1007.1 |
| 20260506111704 | 8 | 319 | 1.6 | 6.4 | 0.05 | 2.24 | 2.24 | 95 | 1007.1 |
| 20260506110205 | 8 | 315 | 1.6 | 4.8 | 0.03 | 2.21 | 2.21 | 95 | 1006.9 |
| 20260506104705 | 8 | 304 | 1.6 | 9.7 | 0.00 | 2.18 | 2.18 | 95 | 1006.9 |
| 20260506103205 | 8 | 121 | 1.6 | 6.4 | 0.00 | 2.18 | 2.18 | 95 | 1006.8 |
| 20260506101705 | 8 | 319 | 1.6 | 8.0 | 0.00 | 2.18 | 2.18 | 95 | 1006.7 |
| 20260506100205 | 8 | 300 | 1.6 | 9.7 | 0.00 | 2.18 | 2.18 | 95 | 1006.6 |
| 20260506094705 | 8 | 240 | 1.6 | 6.4 | 0.00 | 2.18 | 2.18 | 96 | 1006.5 |
| 20260506093205 | 8 | 302 | 0.0 | 6.4 | 0.00 | 2.18 | 2.18 | 96 | 1006.4 |
| 20260506091705 | 8 | 266 | 1.6 | 9.7 | 0.00 | 2.18 | 2.18 | 96 | 1006.4 |
| 20260506090205 | 8 | 287 | 1.6 | 8.0 | 0.00 | 2.18 | 2.18 | 96 | 1006.3 |
| 20260506084705 | 8 | 308 | 1.6 | 8.0 | 0.03 | 2.18 | 2.18 | 96 | 1006.2 |
| 20260506083205 | 8 | 319 | 1.6 | 8.0 | 0.05 | 2.18 | 2.18 | 96 | 1006.0 |
| 20260506081705 | 8 | 298 | 1.6 | 4.8 | 0.10 | 2.18 | 2.18 | 96 | 1006.0 |
| 20260506080206 | 8 | 305 | 1.6 | 6.4 | 0.15 | 2.18 | 2.18 | 96 | 1005.8 |
| 20260506073205 | 8 | 311 | 1.6 | 8.0 | 0.23 | 2.13 | 2.13 | 96 | 1005.7 |
| 20260506071704 | 8 | 311 | 1.6 | 8.0 | 0.25 | 2.11 | 2.08 | 96 | 1005.7 |
| 20260506070205 | 8 | 304 | 1.6 | 8.0 | 0.23 | 2.08 | 2.03 | 96 | 1005.6 |